Weather History for EHDL - February, 2014

Change the Weather History Date:

Friday, February 14, 2014

  Actual Average Record
Temperature  
Mean Temperature 39 °F -  
Max Temperature 44 °F 45 °F 51 °F (2015)
Min Temperature 34 °F 34 °F 19 °F (2003)
Degree Days  
Heating Degree Days 26    
Moisture  
Dew Point 36 °F    
Average Humidity 87    
Maximum Humidity 100    
Minimum Humidity 65    
Precipitation  
Precipitation 0.16 in - - ()
Sea Level Pressure  
Sea Level Pressure 29.54 in    
Wind  
Wind Speed 12 mph ()    
Max Wind Speed 20 mph    
Max Gust Speed 31 mph    
Visibility 8.2 miles    
Events Rain    
Averages and records for this station are not official NWS values.
T = Trace of Precipitation, MM = Missing Value Source: Averaged Metar Reports

Daily Weather History Graph

Daily Weather History Graph

Search for Another Location

Airport or City:

Trip Planner

Search our weather history database for the weather conditions in past years. The results will help you decide how hot, cold, wet, or windy it might be!

Date:

Astronomy

Feb. 14, 2014 Rise Set
Actual Time 7:53 AM CET 5:48 PM CET
Civil Twilight 7:18 AM CET 6:23 PM CET
Nautical Twilight 6:39 AM CET 7:03 PM CET
Astronomical Twilight 6:00 AM CET 7:42 PM CET
Moon 5:42 PM CET (2/14) 7:09 AM CET (2/14)
Length of Visible Light 11h 04m
Length of Day
9h 54m
Full, 100% of the Moon is Illuminated
Feb 14
Full
Feb 15
Full
Feb 22
Last Quarter
Mar 1
New
Mar 8
First Quarter

Hourly Weather History & Observations

Time (CET) Temp. Windchill Dew Point Humidity Pressure Visibility Wind Dir Wind Speed Gust Speed Precip Events Conditions
12:00 AM 35 °F - 34 °F 94%  in 12 mi SW 11.2 mph - -   Partly Cloudy
12:25 AM 37.4 °F 30.3 °F 35.6 °F 93% 29.53 in 6.2 mi SW 10.4 mph - N/A   Scattered Clouds
12:55 AM 35.6 °F 28.0 °F 33.8 °F 93% 29.53 in 6.2 mi SW 10.4 mph - N/A   Partly Cloudy
1:00 AM 36 °F - 34 °F 90% 29.55 in 12 mi SW 8.9 mph - -   Partly Cloudy
1:25 AM 35.6 °F 28.6 °F 33.8 °F 93% 29.53 in 6.2 mi SSW 9.2 mph - N/A   Partly Cloudy
1:55 AM 35.6 °F 27.5 °F 33.8 °F 93% 29.56 in 6.2 mi SW 11.5 mph - N/A   Partly Cloudy
2:00 AM 36 °F - 34 °F 90% 29.58 in 10 mi SW 11.2 mph - -   Scattered Clouds
2:25 AM 37.4 °F 30.3 °F 33.8 °F 87% 29.56 in 6.2 mi SSW 10.4 mph - N/A   Mostly Cloudy
2:55 AM 37.4 °F 28.9 °F 33.8 °F 87% 29.59 in 6.2 mi SSW 13.8 mph - N/A   Partly Cloudy
3:00 AM 36 °F - 34 °F 90% 29.60 in 11 mi SSW 13.4 mph - -   Scattered Clouds
3:25 AM 37.4 °F 28.5 °F 35.6 °F 93% 29.59 in 6.2 mi SSW 15.0 mph - N/A   Overcast
3:55 AM 37.4 °F 29.3 °F 33.8 °F 87% 29.59 in 6.2 mi SSW 12.7 mph - N/A   Partly Cloudy
4:00 AM 37 °F - 35 °F 87% 29.61 in 12 mi SSW 11.2 mph - -   Scattered Clouds
4:25 AM 37.4 °F 29.3 °F 33.8 °F 87% 29.59 in 6.2 mi SSW 12.7 mph - N/A   Partly Cloudy
4:55 AM 37.4 °F 29.3 °F 33.8 °F 87% 29.59 in 6.2 mi SSW 12.7 mph - N/A   Partly Cloudy
5:00 AM 37 °F - 35 °F 87% 29.61 in 12 mi SSW 13.4 mph - -   Scattered Clouds
5:25 AM 35.6 °F 27.1 °F 33.8 °F 93% 29.59 in 6.2 mi SSW 12.7 mph - N/A   Unknown
5:55 AM 35.6 °F 26.6 °F 33.8 °F 93% 29.59 in 6.2 mi SSW 13.8 mph - N/A   Partly Cloudy
6:00 AM 36 °F - 34 °F 90% 29.63 in 15 mi SSW 13.4 mph - -   Scattered Clouds
6:25 AM 35.6 °F 27.5 °F 33.8 °F 93% 29.62 in 6.2 mi SSW 11.5 mph - N/A   Partly Cloudy
6:55 AM 35.6 °F 27.5 °F 33.8 °F 93% 29.62 in 6.2 mi SSW 11.5 mph - N/A   Partly Cloudy
7:00 AM 35 °F - 33 °F 92% 29.65 in 17 mi SSW 13.4 mph - -   Partly Cloudy
7:25 AM 35.6 °F 27.5 °F 33.8 °F 93% 29.62 in 6.2 mi SSW 11.5 mph - N/A   Unknown
7:55 AM 35.6 °F 28.0 °F 33.8 °F 93% 29.65 in 6.2 mi SSW 10.4 mph - N/A   Partly Cloudy
8:00 AM 35 °F - 33 °F 91% 29.67 in 16 mi South 8.9 mph - -   Scattered Clouds
8:25 AM 35.6 °F 29.2 °F 33.8 °F 93% 29.65 in 6.2 mi South 8.1 mph - N/A   Partly Cloudy
8:55 AM 35.6 °F 29.2 °F 33.8 °F 93% 29.65 in 6.2 mi South 8.1 mph - N/A   Partly Cloudy
9:00 AM 35 °F - 34 °F 92% 29.68 in 13 mi South 8.9 mph - -  
9:25 AM 35.6 °F 27.5 °F 33.8 °F 93% 29.68 in 6.2 mi South 11.5 mph - N/A   Unknown
9:30 AM 35.6 °F 28.0 °F 33.8 °F 93% 29.68 in 6.2 mi South 10.4 mph - N/A   Partly Cloudy
9:55 AM 37.4 °F 30.3 °F 33.8 °F 87% 29.68 in 6.2 mi South 10.4 mph - N/A   Partly Cloudy
10:00 AM 37 °F - 35 °F 87% 29.69 in 19 mi South 11.2 mph - -   Partly Cloudy
10:25 AM 37.4 °F 30.3 °F 35.6 °F 93% 29.68 in 6.2 mi South 10.4 mph - N/A   Scattered Clouds
10:55 AM 39.2 °F 31.2 °F 35.6 °F 87% 29.68 in 6.2 mi South 13.8 mph - N/A   Partly Cloudy
11:00 AM 40 °F - 36 °F 79% 29.69 in 17 mi South 13.4 mph - -   Scattered Clouds
11:25 AM 41.0 °F 33.9 °F 35.6 °F 81% 29.68 in 6.2 mi South 12.7 mph - N/A   Overcast
11:55 AM 41.0 °F 33.5 °F 37.4 °F 87% 29.68 in 6.2 mi South 13.8 mph - N/A   Overcast
12:00 PM 42 °F - 37 °F 75% 29.68 in 16 mi South 13.4 mph - -   Scattered Clouds
12:25 PM 41.0 °F 33.9 °F 35.6 °F 81% 29.65 in 6.2 mi SSE 12.7 mph - N/A   Overcast
12:55 PM 42.8 °F 35.4 °F 37.4 °F 81% 29.62 in 6.2 mi SSE 15.0 mph - N/A   Mostly Cloudy
1:00 PM 43 °F - 37 °F 72% 29.64 in 16 mi SSE 15.7 mph - -   Partly Cloudy
1:25 PM 42.8 °F 36.6 °F 37.4 °F 81% 29.62 in 6.2 mi SSE 11.5 mph - N/A   Overcast
1:55 PM 44.6 °F 37.8 °F 37.4 °F 76% 29.59 in 6.2 mi SSE 15.0 mph - N/A   Overcast
2:00 PM 44 °F - 37 °F 68% 29.62 in 19 mi SSE 13.4 mph - -   Overcast
2:25 PM 44.6 °F 38.1 °F 35.6 °F 71% 29.59 in 6.2 mi SSE 13.8 mph - N/A   Overcast
2:55 PM 44.6 °F 37.4 °F 35.6 °F 71% 29.59 in 6.2 mi SSE 16.1 mph - N/A   Mostly Cloudy
3:00 PM 44 °F - 36 °F 65% 29.59 in 25 mi SSE 13.4 mph - -   Overcast
3:25 PM 44.6 °F 38.1 °F 35.6 °F 71% 29.56 in 6.2 mi SSE 13.8 mph - N/A   Mostly Cloudy
3:55 PM 44.6 °F 38.1 °F 35.6 °F 71% 29.53 in 6.2 mi SE 13.8 mph - N/A   Mostly Cloudy
4:00 PM 44 °F - 36 °F 65% 29.55 in 22 mi SE 13.4 mph - -   Scattered Clouds
4:25 PM 44.6 °F 37.4 °F 37.4 °F 76% 29.50 in 6.2 mi SE 16.1 mph - N/A   Scattered Clouds
4:55 PM 42.8 °F 34.5 °F 37.4 °F 81% 29.47 in 6.2 mi SE 18.4 mph - N/A   Light Drizzle
5:00 PM 43 °F - 37 °F 72% 29.48 in 16 mi SE 17.9 mph - - Rain Light Drizzle
5:25 PM 42.8 °F 35.8 °F 37.4 °F 81% 29.47 in 6.2 mi SSE 13.8 mph 25.3 mph N/A Rain Light Rain
5:55 PM 41.0 °F 32.8 °F 39.2 °F 93% 29.47 in 6.2 mi SSE 16.1 mph - N/A Rain Light Rain
6:00 PM 42 °F - 39 °F 84% 29.47 in 6 mi SSE 15.7 mph - - Rain Rain
6:25 PM 41.0 °F 32.5 °F 39.2 °F 93% 29.44 in 6.2 mi SSE 17.3 mph - N/A Rain Light Rain Showers
6:55 PM 41.0 °F 32.2 °F 39.2 °F 93% 29.42 in 5.0 mi SE 18.4 mph - N/A Rain Light Rain Showers
7:00 PM 41 °F - 40 °F 93% 29.43 in 6 mi SE 17.9 mph - - Rain Rain
7:25 PM 41.0 °F 31.9 °F 39.2 °F 93% 29.39 in 5.0 mi SSE 19.6 mph - N/A Rain Light Rain Showers
7:55 PM 41.0 °F 32.2 °F 41.0 °F 100% 29.39 in 3.1 mi SSE 18.4 mph - N/A Rain Rain Showers
8:25 PM 42.8 °F 34.5 °F 41.0 °F 93% 29.36 in - SSE 18.4 mph - N/A Rain Light Rain Showers
8:55 PM 42.8 °F 34.8 °F 41.0 °F 93% 29.33 in 6.2 mi SSE 17.3 mph - N/A Rain Light Rain
9:00 PM 42 °F - 42 °F 99% 29.34 in 10 mi SSE 15.7 mph - - Rain Light Rain
9:25 PM 42.8 °F 34.5 °F 41.0 °F 93% 29.33 in 6.2 mi SSE 18.4 mph 31.1 mph N/A   Mostly Cloudy
9:55 PM 42.8 °F 34.8 °F 41.0 °F 93% 29.30 in 6.2 mi SSE 17.3 mph - N/A   Mostly Cloudy
10:25 PM 42.8 °F 34.8 °F 41.0 °F 93% 29.27 in 6.2 mi SSE 17.3 mph - N/A   Mostly Cloudy
10:55 PM 42.8 °F 35.4 °F 41.0 °F 93% 29.27 in 6.2 mi SSE 15.0 mph - N/A   Overcast
11:00 PM 43 °F - 41 °F 90% 29.27 in 12 mi SSE 15.7 mph - -   Partly Cloudy
11:25 PM 42.8 °F 35.1 °F 41.0 °F 93% 29.24 in 6.2 mi SSE 16.1 mph - N/A   Overcast
11:55 PM 44.6 °F 36.9 °F 41.0 °F 87% 29.21 in 6.2 mi SSE 18.4 mph - N/A   Mostly Cloudy